Вернуться в каталог

COSMOS 2251 DEB

АктивенLEO
NORAD 33816·DEBRIS·🇷🇺 Russia

Запущен Jun 16, 1993 с Plesetsk Cosmodrome

Loading…

Ближайшие Пролёты (ближайшие 24 часа)

TLE

СвежийSource: Space-Track

Эпоха: Sep 14, 2026, 05:23 UTC

1 33816U 93036BH  26257.22476146  .00000293  00000-0  22584-3 0  9994
2 33816  73.8975 358.2853 0265918 319.2168  38.9313 13.82141177884795

Отслеживайте COSMOS 2251 DEB в реальном времени с AllMySat

Download on the App Store